sat.trackr.live / text

‹ back to catalog

ONEWEB-0080

NORAD 45426 · 2020-020C

PAYLOAD ACTIVE UNKNOWN

§ Identity

Operator
Country
UK
Launch date
2020-03-21
Launch site
TYMSC
Launch vehicle
Mass (kg)
RCS (m²)

Purposes: comms

External: N2YO · Heavens-Above · Gunter

§ Orbital elements

Epoch: 2026-09-10T00:37:38.077824Z

Period
109.81 min
Inclination
87.8949°
Eccentricity
0.0000709
Mean motion
13.11411558 rev/d
Perigee alt
1,217.2 km
Apogee alt
1,218.2 km
Semi-major
7,595.8 km
B*
-1.0520e-2
RAAN
4.2044°
Arg perigee
129.1330°
Mean anomaly
230.9861°
Rev number
31,382

§ Raw data

ONEWEB-00801 45426U 20020C   26253.02613516 -.00003714  00000+0 -10520-1 0  99922 45426  87.8949   4.2044 0000709 129.1330 230.9861 13.11411558313823

JSON: /api/v1/satellites/45426 · /tle

For live sub-satellite position, see the globe view (requires WebGL).

§ Visibility from observer

Set your observer location to see the next 7 days of passes ≥ 10°. The values pass through the URL so the page stays shareable.

No JS? Fill the form by hand. The geolocation button needs JavaScript.